236P/LINEAR (2010)

Japanese version
Home page
Updated on September 3, 2011

---------------------------------------------------------------------

* Profile

Designation 236P/2010 K1
Recovery Date May 20, 2010
Magnitude 21.5 mag
Recoverer J. V. Scotti (Spacewatch)

* Pictures

* Orbital Elements

                    Epoch = 2010 Sept. 1.0 TT
     T = 2010 Sept. 8.8213 TT         Peri. = 119.3369
     e = 0.509100                     Node  = 245.6704  2000.0
     q = 1.831352 AU                  Incl. =  16.3321
       a =  3.730598 AU    n = 0.1367843    P =   7.21 years

* Finding Charts

* Magnitudes Graph

        m1 = 15.0 + 5 log d + 10.0 log r

---------------------------------------------------------------------

The orbital elements are printed on IAUC 9149.
The charts are made with StellaNavigator Ver.8 (AstroArts).
The magnitudes graphs are made with Comet for Windows.

---------------------------------------------------------------------

Copyright(C) Seiichi Yoshida (comet@aerith.net). All rights reserved.